STARLINK-32729 (62497 NORAD) Tracking and Keplerian Element Data

This shows tracking and keplerian element data for the satellite.

Feedback or suggestion? Click here.




ElementValue
Catalog62497
NameSTARLINK-32729
Epoch Orbit565
Epoch Day35.01542152
Epoch Year2025
RAAN24.4427
Inclination43.0002
Eccentricity0.0001568
Argument of Perigee283.0381
Mean Anonmoly77.0304
Mean Motion15.50587816
Decay Rate-1.821E-05
L11 62497U 25003L 25035.01542152 -.00001821 00000+0 -25222-4 0 9993
L22 62497 43.0002 24.4427 0001568 283.0381 77.0304 15.50587816 5650



Live tracking and technical data element details for STARLINK-32729 (NORAD 62497). STARLINK-32729 can be tracked NOW for your location showing map with azimuth and elevation plus other details from your city location.







IsCatalogInMostPopularTable: catalog: 62497, numindb: 19
Update: records affected: 1



GetName: 62497 STARLINK-32729

Hit Count: updated at: Mon, 19 May 2025 01:56:30 GMT